Orbital Elements
Epoch 2014 Apr. 13.0 TT = JDT 2456760.5
T 2014 Apr. 2.60555 TT MPC
q 3.0265000 (2000.0) P Q
n 0.11139527 Peri. 181.30518 +0.41627026 -0.90558420
a 4.2778434 Node 244.10079 +0.83503061 +0.41621003
e 0.2925174 Incl. 5.19577 +0.35978182 +0.08177082
P 8.85
From 689 observations 1986 Oct. 8-2013 Aug. 17, mean residual 0".7.
Nongravitational parameters A1 = -0.47, A2 = +1.1311.
|